Content
SEND FEEDBACK

Daily
Averages
Monthly
Summary
United States of America

LAKE GEORGE, NEW YORK


Home > North America > United States > New York
Elevation: 321 feet     Latitude: 43 21N     Longitude: 073 37W

WEATHER
 
SELECT A DAY
Number of Records: 212,733;   Date Range: 1/1/95 - 7/7/14
 
SHARE

PRINT THIS DATA

[ ← Previous Day ]
WEATHER ALMANAC - JUNE 28, 2013
[ Next Day → ]
[ °C ]   °F
We're sorry. There is no daily almanac available for Lake George, New York on June 28, 2013.
WEATHER BY HOUR - JUNE 28, 2013
[ °C ]   °F
Local TimeTemperatureDewpointHumidityBarometerVisibilityWind DirectionWind SpeedGust SpeedPrecipitationEventsConditions
1:12 AM71.6 °F68.0 °F88 %29.62 in3.0 miENE (60°)8.1 mph0.05 inRainRain
1:23 AM69.8 °F68.0 °F94 %29.61 in2.5 miNE (50°)11.5 mph0.11 inRainRain
1:28 AM69.8 °F68.0 °F94 %29.61 in3.0 miNE (40°)10.4 mph0.12 inRainRain
1:53 AM69.1 °F66.9 °F93 %29.58 in4.0 miNE (40°)11.5 mph0.16 inRainLight Rain
2:53 AM68.0 °F66.0 °F93 %29.53 in4.0 miNE (40°)12.7 mph19.6 mph0.13 inRainRain
3:16 AM66.2 °F64.4 °F94 %29.53 in1.8 miNE (40°)15.0 mph0.20 inRainHeavy Rain
3:42 AM66.2 °F64.4 °F94 %29.50 in1.8 miNNE (30°)13.8 mph23.0 mph0.59 inRainHeavy Rain
3:50 AM66.2 °F64.4 °F94 %29.50 in3.0 miNE (40°)15.0 mph0.62 inRainRain
3:53 AM66.0 °F64.9 °F96 %29.49 in3.0 miNE (40°)12.7 mph0.62 inRainRain
4:04 AM66.2 °F64.4 °F94 %29.50 in3.0 miNE (40°)15.0 mph21.9 mph0.02 inRainLight Rain
4:53 AM66.0 °F64.0 °F93 %29.45 in2.5 miNE (50°)13.8 mph0.06 inRainRain
5:03 AM66.2 °F64.4 °F94 %29.45 in3.0 miNE (40°)17.3 mph23.0 mph0.02 inRainRain
5:53 AM66.0 °F63.0 °F90 %29.41 in10.0 miENE (60°)13.8 mph20.7 mph0.08 inRainLight Rain
6:25 AM66.2 °F62.6 °F88 %29.41 in7.0 miENE (70°)12.7 mph0.03 inRainLight Rain
6:53 AM64.9 °F62.1 °F90 %29.39 in10.0 miENE (60°)15.0 mph0.03 inOvercast
7:41 AM66.2 °F64.4 °F94 %29.40 in2.0 miESE (120°)5.8 mph0.05 inRainLight Rain
7:50 AM68.0 °F64.4 °F88 %29.39 in9.0 miSE (140°)12.7 mph17.3 mph0.05 inRainLight Rain
7:53 AM69.1 °F66.0 °F90 %29.39 in10.0 miSouth (170°)12.7 mph18.4 mph0.05 inOvercast
8:53 AM70.0 °F64.9 °F84 %29.39 in10.0 miSouth (180°)20.7 mph31.1 mph0.00 inOvercast
9:34 AM73.4 °F64.4 °F73 %29.40 in10.0 miSouth (190°)24.2 mph32.2 mphOvercast
9:53 AM73.0 °F64.9 °F76 %29.39 in10.0 miSouth (190°)18.4 mph27.6 mphMostly Cloudy
10:07 AM73.4 °F64.4 °F73 %29.40 in10.0 miSouth (180°)18.4 mph29.9 mphMostly Cloudy
10:26 AM73.4 °F64.4 °F73 %29.41 in10.0 miSouth (190°)13.8 mph24.2 mphMostly Cloudy
10:53 AM75.0 °F64.9 °F71 %29.41 in10.0 miSouth (190°)18.4 mph25.3 mphMostly Cloudy
11:53 AM75.9 °F64.0 °F67 %29.43 in10.0 miSSW (200°)12.7 mph21.9 mphMostly Cloudy
12:53 PM78.1 °F64.0 °F62 %29.44 in10.0 miSSW (200°)16.1 mph24.2 mphScattered Clouds
1:53 PM79.0 °F64.0 °F60 %29.44 in10.0 miSSW (210°)12.7 mph21.9 mphOvercast
2:53 PM75.9 °F63.0 °F64 %29.45 in10.0 miSSW (200°)8.1 mphOvercast
3:53 PM78.1 °F64.0 °F62 %29.44 in10.0 miSouth (170°)13.8 mph20.7 mphOvercast
4:53 PM75.9 °F66.9 °F74 %29.44 in10.0 miSouth (170°)9.2 mphOvercast
5:53 PM73.9 °F68.0 °F82 %29.44 in10.0 miSouth (180°)6.9 mphOvercast
6:53 PM73.0 °F66.0 °F79 %29.45 in10.0 miSSW (200°)5.8 mph0.00 inMostly Cloudy
7:53 PM72.0 °F64.9 °F78 %29.46 in10.0 miSW (220°)3.5 mphPartly Cloudy
8:53 PM69.1 °F66.0 °F90 %29.48 in10.0 miSSW (210°)3.5 mphClear
9:53 PM69.1 °F66.0 °F90 %29.49 in10.0 miWNW (300°)3.5 mphMostly Cloudy
10:53 PM66.9 °F64.9 °F93 %29.49 in10.0 miCalmScattered Clouds
11:53 PM66.0 °F64.9 °F96 %29.50 in8.0 miCalm0.00 inMostly Cloudy
Hourly data recorded from KGFL, located miles away from Lake George, New York







STORIES FROM OUR PARTNERS